Powrót do katalogu

GLOBALSTAR M079

AktywnyŁącznośćLEO
NORAD 37188·PAYLOAD·🇺🇸 United States

Wystrzelony Oct 19, 2010 z Baikonur Cosmodrome

Loading…

Następne Przeloty (najbliższe 24 godziny)

TLE

ŚwieżeSource: Space-Track

Epoka: Sep 14, 2026, 13:25 UTC

1 37188U 10054A   26257.55938463 -.00000089  00000-0  83772-4 0  9991
2 37188  52.0030 196.6076 0000371  93.6960  78.0152 12.62267396733839

Śledź GLOBALSTAR M079 w czasie rzeczywistym z AllMySat

Download on the App Store